[[{"header":{"parameterUnit":"m.s-1","parameterCategory":1,"la1":30.2991,"la2":30.254,"lo1":-89.0895,"lo2":-89.0444,"dy":0.0017,"dx":0.0017,"nx":28,"ny":28,"refTime":"2024-02-06T09:00:00:Z","depth":0,"parameterNumber":2,"parameterNumberName":"U-component_of_WINDS"},"data":[0,0,0,0,0,0,0,0,0,0,0,0,0,0,0,0,0,0,0,0,0,0,0,0,0,0,0,0,0,0,0,0,0,0,0,0,0,0,0,0,0,0,0,0,0,0,0,0,0,0,0,0,0,0,0,0,0,0,0.737,0.737,0,0.7376,0.7376,0.7376,0.7348,0.7347,0.7346,0.7346,0.7352,0.7353,0.7354,0,0,0,0,0,0,0,0,0,0,0,0,0,0.7337,0.7338,0.737,0.737,0.737,0.7376,0.7376,0.7376,0.7348,0.7347,0.7346,0.7345,0.7352,0.7353,0.7354,0,0,0,0,0,0,0,0,0,0,0,0,0,0.7348,0.7338,0.737,0.7357,0.7356,0.7376,0.7376,0.7376,0.7348,0.7347,0.7346,0.7345,0.7351,0.7353,0.7354,0.7387,0,0,0.7358,0.7359,0,0,0,0,0,0,0,0,0.7347,0.7349,0.7359,0.7358,0.7357,0.736,0.7367,0.738,0.7349,0.7351,0.7346,0.7344,0.7356,0.7357,0.736,0.7388,0.7388,0.7359,0.7359,0.736,0.736,0,0,0,0,0,0,0,0.7347,0.7349,0.7373,0.7359,0.7358,0.7352,0.7352,0.7369,0.736,0.7351,0.7349,0.735,0.7355,0.7359,0.736,0.7388,0.7359,0.736,0.7361,0.7361,0.7445,0.7446,0,0,0,0,0,0,0.7347,0.7348,0.7372,0.7373,0.7349,0.7353,0.7353,0.736,0.736,0.7359,0.7351,0.7349,0.7357,0.7359,0.7361,0.7401,0.736,0.7361,0.7362,0.7444,0.7445,0.7447,0,0,0,0,0,0,0.7347,0.735,0.7372,0.736,0.7362,0.7355,0.7363,0.7361,0.7365,0.736,0.7358,0.7357,0.7357,0.7359,0.7381,0.7401,0.7362,0.7363,0.7442,0.7444,0.7446,0.7482,0,0,0,0,0,0,0.7346,0.735,0.7362,0.736,0.7363,0.7392,0.7364,0.7362,0.7368,0.7365,0.7365,0.7364,0.7356,0.7379,0.7383,0.7402,0.7364,0.744,0.7443,0.7446,0.7479,0.7485,0.749,0,0,0,0,0,0.7345,0.7371,0.7363,0.7366,0.7378,0.7394,0.7395,0.7385,0.7369,0.7382,0.7379,0.7364,0.7398,0.7382,0.7386,0.7406,0.7439,0.7442,0.7445,0.7477,0.7484,0.749,0,0,0,0,0,0,0.7375,0.7371,0.7361,0.7388,0.7391,0.7389,0.7404,0.7392,0.7401,0.7397,0.7384,0.7385,0.741,0.741,0.7392,0.7439,0.7416,0.742,0.7439,0.7446,0.7451,0.7451,0.7365,0,0,0,0,0,0.7385,0.7397,0.7393,0.7417,0.7419,0.7412,0.7418,0.741,0.7413,0.7414,0.7413,0.7417,0.7429,0.7437,0.7447,0.7478,0.7479,0.7494,0.75,0.7504,0.7509,0.7528,0.7535,0.7457,0.7457,0.7457,0,0,0.7405,0.7404,0.7413,0.7423,0.7425,0.7439,0.7413,0.7429,0.744,0.7417,0.7439,0.7438,0.7442,0.747,0.7482,0.747,0.753,0.7508,0.7512,0.7514,0.7532,0.7539,0.7546,0.7459,0.7459,0.7459,0,0,0.7449,0.7449,0.747,0.7473,0.7476,0.7471,0.7476,0.7476,0.7475,0.7496,0.748,0.7493,0.7513,0.7517,0.7522,0.757,0.7558,0.7574,0.7603,0.7622,0.7628,0.7634,0.7653,0.766,0.7577,0.7578,0.7578,0,0.7474,0.7495,0.7482,0.75,0.7506,0.7486,0.7508,0.7511,0.7518,0.7523,0.7509,0.7536,0.7537,0.7567,0.7579,0.7582,0.7589,0.7574,0.7628,0.7634,0.7639,0.7657,0.7664,0.758,0.7579,0.7579,0.7579,0,0.7526,0.7541,0.7558,0.7565,0.7573,0.7592,0.7584,0.7593,0.7585,0.7582,0.7605,0.7606,0.7617,0.7623,0.7614,0.7653,0.7646,0.763,0.7607,0.7648,0.7666,0.7672,0.7583,0.7582,0.7581,0.7581,0,0,0.759,0.7592,0.7598,0.7602,0.7605,0.7617,0.7636,0.7647,0.7656,0.7662,0.7679,0.7697,0.7684,0.7689,0.7681,0.7697,0.7738,0.768,0.768,0.7693,0.7783,0.7796,0.7804,0.7729,0.7731,0.7732,0.7783,0,0.7636,0.7669,0.7659,0.7693,0.7708,0.769,0.7707,0.7711,0.7709,0.7722,0.7719,0.7733,0.7713,0.7717,0.7732,0.773,0.7756,0.7726,0.7747,0.7748,0.7749,0.7813,0.7826,0.7875,0.779,0.7791,0.7792,0,0.7693,0.7702,0.7737,0.774,0.7745,0.7761,0.7772,0.7783,0.7788,0.7786,0.7793,0.7782,0.7802,0.7778,0.7807,0.7787,0.7795,0.7796,0.7797,0.78,0.7774,0.782,0.789,0.7898,0.7802,0.7801,0.78,0,0.7739,0.7759,0.7784,0.7788,0.779,0.7802,0.7804,0.7807,0.7816,0.7825,0.783,0.7842,0.7849,0.7858,0.7851,0.7834,0.7883,0.7857,0.7883,0.7883,0.7895,0.7895,0.797,0.7897,0.7897,0.7896,0.7896,0,0.7792,0.7816,0.7805,0.782,0.7846,0.7835,0.7861,0.7861,0.7865,0.7881,0.7865,0.788,0.7869,0.7884,0.7878,0.7905,0.7907,0.7907,0.7906,0.791,0.791,0.7916,0.7913,0.7898,0.7898,0.7898,0.7897,0,0.7849,0.7842,0.7869,0.7869,0.787,0.7889,0.789,0.7905,0.7902,0.7922,0.7926,0.7922,0.7938,0.7932,0.7949,0.7946,0.7981,0.7973,0.7979,0.7978,0.8005,0.8004,0.8089,0.81,0.8017,0.8018,0.8019,0,0.7884,0.7902,0.7905,0.7914,0.7917,0.7932,0.7941,0.7931,0.794,0.7948,0.7963,0.7978,0.799,0.8018,0.8017,0.8031,0.8025,0.8054,0.8027,0.8032,0.8029,0.8029,0.8032,0.806,0.8061,0.8062,0.8062,0,0.7949,0.7945,0.7958,0.797,0.7981,0.799,0.7997,0.8006,0.7997,0.8008,0.8026,0.8035,0.8053,0.807,0.8083,0.8085,0.8074,0.8071,0.8078,0.8083,0.8087,0.8088,0.7996,0.8069,0.8069,0.8068,0.8068,0.8067,0.7997,0.8013,0.8018,0.8033,0.8038,0.8046,0.8061,0.806,0.8074,0.8088,0.8081,0.8102,0.8108,0.8124,0.8129,0.8145,0.8134,0.8144,0.8147,0.815,0.8155,0.8083,0.8147,0.8147,0.8147,0.8147,0.8147,0,0.8063,0.8066,0.808,0.8092,0.8104,0.8091,0.8099,0.8111,0.8129,0.8136,0.8148,0.8169,0.8185,0.8185,0.8201,0.8214,0.8209,0.8219,0.8219,0.822,0.8163,0.8156,0.8223,0.8223,0.8223,0.8223,0.8223,0.8223,0.8099,0.8126,0.8123,0.8153,0.8155,0.8175,0.8181,0.8189,0.8195,0.8219,0.8232,0.8232,0.8237,0.8253,0.8268,0.8267,0.8275,0.8287,0.8285,0.8232,0.8224,0.8217,0.8211,0.8288,0.8288,0.8342,0.8342,0.8343]},{"header":{"parameterUnit":"m.s-1","parameterCategory":1,"la1":30.2991,"la2":30.254,"lo1":-89.0895,"lo2":-89.0444,"dy":0.0017,"dx":0.0017,"nx":28,"ny":28,"refTime":"2024-02-06T09:00:00:Z","depth":0,"parameterNumber":3,"parameterNumberName":"V-component_of_WINDS"},"data":[0,0,0,0,0,0,0,0,0,0,0,0,0,0,0,0,0,0,0,0,0,0,0,0,0,0,0,0,0,0,0,0,0,0,0,0,0,0,0,0,0,0,0,0,0,0,0,0,0,0,0,0,0,0,0,0,0,0,-2.639,-2.6391,0,-2.6413,-2.6414,-2.6414,-2.6423,-2.6423,-2.6423,-2.6422,-2.6444,-2.6444,-2.6445,0,0,0,0,0,0,0,0,0,0,0,0,0,-2.6352,-2.6353,-2.639,-2.6391,-2.6391,-2.6413,-2.6414,-2.6414,-2.6423,-2.6423,-2.6422,-2.6422,-2.6444,-2.6444,-2.6445,0,0,0,0,0,0,0,0,0,0,0,0,0,-2.6371,-2.6353,-2.639,-2.6398,-2.6399,-2.6413,-2.6414,-2.6414,-2.6423,-2.6423,-2.6422,-2.6422,-2.6443,-2.6444,-2.6445,-2.6453,0,0,-2.6448,-2.6449,0,0,0,0,0,0,0,0,-2.637,-2.6372,-2.6397,-2.6398,-2.6399,-2.6415,-2.6408,-2.6427,-2.6423,-2.6414,-2.6422,-2.6422,-2.6434,-2.6436,-2.644,-2.6454,-2.6455,-2.6448,-2.6449,-2.6449,-2.6449,0,0,0,0,0,0,0,-2.6369,-2.6372,-2.6399,-2.6397,-2.6398,-2.64,-2.6402,-2.6412,-2.6424,-2.6414,-2.6415,-2.6418,-2.6435,-2.6439,-2.6441,-2.6455,-2.6448,-2.6449,-2.645,-2.645,-2.6476,-2.6476,0,0,0,0,0,0,-2.6366,-2.637,-2.6399,-2.64,-2.6384,-2.64,-2.6403,-2.641,-2.6424,-2.6426,-2.6418,-2.6418,-2.6438,-2.644,-2.6442,-2.6452,-2.6449,-2.645,-2.6451,-2.6476,-2.6476,-2.6477,0,0,0,0,0,0,-2.6365,-2.6369,-2.6398,-2.6385,-2.6389,-2.6401,-2.6408,-2.641,-2.6415,-2.6427,-2.6429,-2.6421,-2.6438,-2.644,-2.645,-2.6453,-2.6451,-2.6451,-2.6476,-2.6476,-2.6476,-2.6472,0,0,0,0,0,0,-2.6364,-2.6368,-2.6372,-2.6386,-2.639,-2.6407,-2.6409,-2.6411,-2.6417,-2.6418,-2.643,-2.6432,-2.6438,-2.6449,-2.6451,-2.6454,-2.6452,-2.6476,-2.6476,-2.6476,-2.6472,-2.6472,-2.6472,0,0,0,0,0,-2.6363,-2.6369,-2.6372,-2.6375,-2.6395,-2.6407,-2.6409,-2.6417,-2.6417,-2.642,-2.6428,-2.6431,-2.6452,-2.645,-2.6453,-2.6456,-2.6476,-2.6476,-2.6476,-2.6472,-2.6472,-2.6472,0,0,0,0,0,0,-2.6355,-2.6371,-2.6375,-2.6386,-2.6395,-2.6408,-2.6413,-2.6417,-2.6425,-2.6426,-2.6434,-2.6437,-2.6446,-2.6452,-2.6449,-2.6464,-2.6464,-2.6465,-2.646,-2.646,-2.646,-2.6458,-2.6453,0,0,0,0,0,-2.6355,-2.6364,-2.6377,-2.6385,-2.639,-2.6401,-2.6406,-2.6411,-2.6421,-2.6425,-2.6433,-2.6441,-2.645,-2.6455,-2.6464,-2.6473,-2.6475,-2.6476,-2.6476,-2.6476,-2.6477,-2.6482,-2.6483,-2.6478,-2.6477,-2.6477,0,0,-2.6354,-2.6364,-2.6369,-2.6384,-2.6392,-2.64,-2.6404,-2.6413,-2.6419,-2.6426,-2.6436,-2.6442,-2.6452,-2.6462,-2.6466,-2.6467,-2.6479,-2.6477,-2.6476,-2.6477,-2.6482,-2.6483,-2.6483,-2.6478,-2.6478,-2.6478,0,0,-2.6356,-2.6365,-2.6373,-2.6381,-2.6393,-2.64,-2.6402,-2.6415,-2.6419,-2.643,-2.6435,-2.6442,-2.6457,-2.6464,-2.6469,-2.6475,-2.6478,-2.6477,-2.6477,-2.6483,-2.6483,-2.6483,-2.6485,-2.6486,-2.6478,-2.6478,-2.6478,0,-2.6354,-2.6367,-2.6376,-2.6385,-2.6392,-2.6399,-2.6407,-2.6414,-2.6428,-2.6432,-2.6432,-2.6451,-2.6458,-2.6469,-2.6471,-2.6475,-2.6477,-2.6476,-2.6482,-2.6483,-2.6483,-2.6485,-2.6486,-2.6478,-2.6478,-2.6478,-2.6478,0,-2.6363,-2.6373,-2.6378,-2.6392,-2.6399,-2.6407,-2.6417,-2.6423,-2.6427,-2.6434,-2.6444,-2.6453,-2.6464,-2.6467,-2.6471,-2.6479,-2.6479,-2.6481,-2.6481,-2.6483,-2.6485,-2.6486,-2.6478,-2.6478,-2.6478,-2.6478,0,0,-2.6361,-2.6381,-2.6382,-2.6389,-2.6403,-2.641,-2.6418,-2.6429,-2.6434,-2.6443,-2.645,-2.6463,-2.6464,-2.6471,-2.6476,-2.648,-2.6484,-2.6481,-2.6482,-2.6481,-2.6493,-2.6491,-2.6492,-2.6486,-2.6487,-2.6487,-2.6492,0,-2.6366,-2.6382,-2.6391,-2.6403,-2.6412,-2.6419,-2.6426,-2.6435,-2.6442,-2.6449,-2.6456,-2.6465,-2.6467,-2.6471,-2.6475,-2.6483,-2.6486,-2.6482,-2.6492,-2.6493,-2.649,-2.6493,-2.6492,-2.6496,-2.6493,-2.6493,-2.6493,0,-2.6374,-2.6384,-2.6397,-2.641,-2.6414,-2.6421,-2.6431,-2.6439,-2.6449,-2.6453,-2.646,-2.6466,-2.6474,-2.6474,-2.6486,-2.6483,-2.6488,-2.6492,-2.6492,-2.6493,-2.6493,-2.6494,-2.6498,-2.6498,-2.6494,-2.6494,-2.6494,0,-2.6371,-2.6388,-2.6398,-2.6403,-2.6419,-2.6423,-2.6429,-2.644,-2.6446,-2.6455,-2.6459,-2.6469,-2.6474,-2.6481,-2.6488,-2.6488,-2.6499,-2.65,-2.6503,-2.6503,-2.6505,-2.6505,-2.6509,-2.6508,-2.6508,-2.6508,-2.6508,0,-2.6375,-2.6383,-2.6397,-2.6403,-2.6412,-2.6422,-2.643,-2.6437,-2.6446,-2.6453,-2.646,-2.6466,-2.6476,-2.6483,-2.6489,-2.6498,-2.65,-2.6504,-2.6505,-2.6503,-2.6503,-2.6506,-2.6506,-2.6508,-2.6508,-2.6508,-2.6508,0,-2.6374,-2.6383,-2.6395,-2.6409,-2.6413,-2.6418,-2.643,-2.6436,-2.6443,-2.6452,-2.6455,-2.6465,-2.6475,-2.6483,-2.6495,-2.6499,-2.6508,-2.651,-2.6505,-2.6506,-2.6508,-2.6508,-2.6515,-2.6516,-2.6514,-2.6514,-2.6514,0,-2.6376,-2.6382,-2.6397,-2.6403,-2.6409,-2.6418,-2.6425,-2.6434,-2.644,-2.6452,-2.6457,-2.6467,-2.6475,-2.649,-2.6498,-2.6507,-2.6509,-2.6511,-2.6511,-2.6509,-2.6509,-2.6509,-2.6509,-2.6511,-2.6511,-2.6511,-2.6511,0,-2.6378,-2.6383,-2.6392,-2.6403,-2.6411,-2.642,-2.6429,-2.6433,-2.6444,-2.6451,-2.6461,-2.6468,-2.648,-2.649,-2.65,-2.6506,-2.651,-2.6511,-2.6512,-2.651,-2.6507,-2.6509,-2.6505,-2.6511,-2.6511,-2.6511,-2.6511,-2.6511,-2.6379,-2.6385,-2.6396,-2.6406,-2.6414,-2.6423,-2.6429,-2.6437,-2.6446,-2.6458,-2.6462,-2.6473,-2.6482,-2.6497,-2.6503,-2.651,-2.6511,-2.6513,-2.6513,-2.6513,-2.6513,-2.6506,-2.6512,-2.6512,-2.6512,-2.6512,-2.6512,0,-2.6381,-2.6389,-2.6399,-2.6412,-2.642,-2.6424,-2.6434,-2.644,-2.6449,-2.6458,-2.6467,-2.6478,-2.6488,-2.6497,-2.6507,-2.6511,-2.6513,-2.6513,-2.6513,-2.6514,-2.6512,-2.651,-2.6511,-2.6511,-2.6511,-2.6511,-2.6511,-2.6511,-2.6384,-2.6394,-2.64,-2.6415,-2.6422,-2.6433,-2.6438,-2.6446,-2.6453,-2.6466,-2.6474,-2.6481,-2.649,-2.65,-2.6509,-2.6511,-2.6515,-2.6514,-2.6517,-2.6514,-2.6514,-2.6514,-2.6513,-2.6515,-2.6515,-2.6519,-2.6519,-2.6519]}]]